[[{"header":{"parameterUnit":"m.s-1","parameterCategory":1,"la1":30.2991,"la2":30.254,"lo1":-89.0895,"lo2":-89.0444,"dy":0.0017,"dx":0.0017,"nx":28,"ny":28,"refTime":"2025-07-12T21:00:00:Z","depth":0,"parameterNumber":2,"parameterNumberName":"U-component_of_WINDS"},"data":[0,0,0,0,0,0,0,0,0,0,0,0,0,0,0,0,0,0,0,0,0,0,0,0,0,0,0,0,0,0,0,0,0,0,0,0,0,0,0,0,0,0,0,0,0,0,0,0,0,0,0,0,0,0,0,0,0,0,4.3161,4.3163,0,4.3318,4.3319,4.3321,4.3282,4.3279,4.3276,4.3273,4.3434,4.3441,4.3448,0,0,0,0,0,0,0,0,0,0,0,0,0,4.2826,4.2832,4.3161,4.3163,4.3165,4.3317,4.3319,4.3322,4.3282,4.3278,4.3275,4.3271,4.3432,4.344,4.3449,0,0,0,0,0,0,0,0,0,0,0,0,0,4.2976,4.2834,4.316,4.3163,4.3165,4.3317,4.332,4.3322,4.3283,4.3278,4.3274,4.3269,4.3429,4.3439,4.345,4.3609,0,0,4.3483,4.3488,0,0,0,0,0,0,0,0,4.2968,4.2988,4.3161,4.3163,4.3166,4.3275,4.3261,4.3418,4.3284,4.3238,4.3273,4.3267,4.3385,4.3399,4.3439,4.3616,4.3623,4.3484,4.349,4.3495,4.3498,0,0,0,0,0,0,0,4.2957,4.2981,4.3223,4.3163,4.3166,4.3156,4.3173,4.329,4.3336,4.3242,4.3239,4.3259,4.3386,4.3429,4.3442,4.3626,4.3484,4.3493,4.35,4.3504,4.3937,4.3942,0,0,0,0,0,0,4.2945,4.2973,4.3218,4.3227,4.3053,4.3166,4.3184,4.3245,4.3334,4.3344,4.3262,4.3256,4.3412,4.343,4.3448,4.3636,4.3495,4.3505,4.3511,4.3932,4.3939,4.3944,0,0,0,0,0,0,4.2938,4.2967,4.3211,4.31,4.313,4.3177,4.3245,4.325,4.3293,4.335,4.3358,4.3298,4.3409,4.3433,4.3568,4.3642,4.351,4.352,4.3926,4.3934,4.3941,4.4017,0,0,0,0,0,0,4.2928,4.2965,4.3026,4.3101,4.3136,4.333,4.325,4.3257,4.3312,4.3305,4.3385,4.3394,4.3408,4.3552,4.3579,4.3654,4.3528,4.392,4.393,4.3939,4.4008,4.4026,4.4042,0,0,0,0,0,4.2917,4.3042,4.3029,4.3059,4.3214,4.3334,4.3354,4.3367,4.3318,4.3379,4.3415,4.3391,4.363,4.3566,4.3596,4.3676,4.3915,4.3927,4.3938,4.4,4.4022,4.4041,0,0,0,0,0,0,4.2975,4.3052,4.3039,4.3193,4.3257,4.3327,4.3405,4.339,4.347,4.3461,4.3474,4.3492,4.363,4.3667,4.3595,4.3832,4.3765,4.3783,4.3803,4.3824,4.3841,4.3828,4.3537,0,0,0,0,0,4.3006,4.3098,4.316,4.3289,4.3322,4.3358,4.3411,4.3415,4.3483,4.351,4.3556,4.3622,4.3711,4.377,4.3856,4.4014,4.4029,4.4083,4.41,4.4113,4.4128,4.421,4.4234,4.3981,4.3981,4.3981,0,0,4.3071,4.3124,4.3181,4.3302,4.3353,4.3446,4.3381,4.3484,4.3553,4.3526,4.3655,4.3691,4.3766,4.3912,4.3979,4.3947,4.4201,4.4128,4.4138,4.4145,4.4224,4.4248,4.4269,4.3989,4.3988,4.3987,0,0,4.3235,4.3286,4.3398,4.3449,4.3525,4.3548,4.3575,4.3647,4.367,4.38,4.378,4.3863,4.4018,4.407,4.4118,4.43,4.428,4.4328,4.4415,4.4495,4.4515,4.4532,4.4594,4.4617,4.4343,4.4343,4.4343,0,4.3306,4.3446,4.3457,4.356,4.3613,4.3592,4.3704,4.3753,4.3855,4.3891,4.3854,4.4045,4.4095,4.4251,4.4295,4.4335,4.4364,4.4318,4.4511,4.4529,4.4546,4.4604,4.4628,4.4348,4.4347,4.4347,4.4346,0,4.3527,4.3624,4.3705,4.3801,4.3864,4.3971,4.3998,4.4059,4.4058,4.4084,4.4215,4.4274,4.4369,4.4407,4.4408,4.4563,4.454,4.4508,4.444,4.4574,4.463,4.4653,4.4355,4.4353,4.4352,4.435,0,0,4.3733,4.3832,4.3862,4.3903,4.3986,4.4061,4.4167,4.4259,4.431,4.438,4.4467,4.4598,4.4567,4.462,4.4627,4.4698,4.4834,4.4655,4.4657,4.4684,4.5005,4.5027,4.5053,4.4822,4.4826,4.483,4.4997,0,4.3902,4.4087,4.4099,4.4267,4.4355,4.4335,4.4427,4.4486,4.4514,4.4592,4.4622,4.4713,4.4667,4.4699,4.4768,4.4802,4.4898,4.4791,4.4901,4.4905,4.488,4.5083,4.5107,4.5262,4.502,4.5023,4.5026,0,4.4125,4.4199,4.4375,4.4441,4.4479,4.4561,4.4645,4.4721,4.4787,4.4802,4.4861,4.4856,4.4963,4.4893,4.504,4.4966,4.5012,4.5036,4.5042,4.5051,4.4972,4.5094,4.5313,4.5335,4.5061,4.5058,4.5056,0,4.4253,4.4398,4.4521,4.4558,4.4639,4.4697,4.4734,4.4796,4.4849,4.4923,4.4957,4.5043,4.509,4.5156,4.5174,4.5122,4.5318,4.5251,4.5332,4.5331,4.5372,4.5369,4.5598,4.5407,4.5407,4.5406,4.5406,0,4.4439,4.4546,4.4579,4.4654,4.4773,4.4786,4.4903,4.4936,4.4991,4.5071,4.5061,4.5137,4.5157,4.5236,4.5252,4.5368,4.539,4.5404,4.5406,4.5403,4.5401,4.5431,4.542,4.5412,4.5411,4.541,4.5409,0,4.4602,4.4628,4.476,4.4826,4.4845,4.4929,4.4985,4.5057,4.5082,4.5183,4.5208,4.5247,4.534,4.5365,4.5476,4.5486,4.5622,4.5616,4.5599,4.5598,4.5676,4.5667,4.5931,4.5964,4.5754,4.5756,4.5758,0,4.4718,4.4799,4.4873,4.4925,4.4964,4.505,4.5103,4.5119,4.5176,4.5256,4.5318,4.5408,4.5481,4.563,4.5668,4.5752,4.5746,4.5833,4.5758,4.5752,4.5743,4.5737,4.5743,4.5846,4.5848,4.585,4.5851,0,4.4919,4.4927,4.5005,4.5088,4.5152,4.5218,4.5281,4.5325,4.5349,4.5413,4.5506,4.5563,4.5675,4.5764,4.5849,4.5886,4.5872,4.5874,4.5897,4.5893,4.5878,4.5884,4.5634,4.5868,4.5866,4.5865,4.5864,4.5863,4.506,4.513,4.5191,4.5278,4.5327,4.5385,4.5454,4.5487,4.5565,4.5657,4.5662,4.5762,4.5825,4.5936,4.5978,4.6056,4.603,4.6064,4.6072,4.6079,4.6084,4.5868,4.6073,4.6072,4.6072,4.6071,4.6071,0,4.5257,4.5295,4.5375,4.5462,4.553,4.5511,4.5579,4.5636,4.5725,4.5784,4.5855,4.5961,4.6047,4.6091,4.6176,4.623,4.6226,4.6252,4.6247,4.6255,4.6104,4.6074,4.6254,4.6254,4.6254,4.6254,4.6254,4.6254,4.5368,4.5484,4.55,4.5639,4.5677,4.5775,4.5815,4.5868,4.5914,4.6033,4.6104,4.6132,4.6184,4.6272,4.635,4.636,4.6391,4.642,4.6427,4.6285,4.6266,4.6248,4.622,4.6427,4.6427,4.657,4.6572,4.6573]},{"header":{"parameterUnit":"m.s-1","parameterCategory":1,"la1":30.2991,"la2":30.254,"lo1":-89.0895,"lo2":-89.0444,"dy":0.0017,"dx":0.0017,"nx":28,"ny":28,"refTime":"2025-07-12T21:00:00:Z","depth":0,"parameterNumber":3,"parameterNumberName":"V-component_of_WINDS"},"data":[0,0,0,0,0,0,0,0,0,0,0,0,0,0,0,0,0,0,0,0,0,0,0,0,0,0,0,0,0,0,0,0,0,0,0,0,0,0,0,0,0,0,0,0,0,0,0,0,0,0,0,0,0,0,0,0,0,0,0.796,0.796,0,0.7989,0.799,0.799,0.7969,0.7968,0.7967,0.7966,0.7996,0.7998,0.8,0,0,0,0,0,0,0,0,0,0,0,0,0,0.7884,0.7885,0.796,0.796,0.796,0.7989,0.799,0.799,0.7969,0.7968,0.7967,0.7966,0.7996,0.7998,0.8,0,0,0,0,0,0,0,0,0,0,0,0,0,0.7915,0.7886,0.796,0.7953,0.7953,0.7989,0.799,0.799,0.7969,0.7968,0.7966,0.7965,0.7995,0.7998,0.8,0.8044,0,0,0.8008,0.8009,0,0,0,0,0,0,0,0,0.7914,0.7918,0.7954,0.7954,0.7954,0.7974,0.7974,0.8008,0.797,0.7963,0.7966,0.7964,0.799,0.7993,0.8001,0.8045,0.8047,0.8008,0.8009,0.8011,0.8011,0,0,0,0,0,0,0,0.7911,0.7917,0.7971,0.7955,0.7954,0.7949,0.7952,0.798,0.7984,0.7964,0.7962,0.7966,0.799,0.7999,0.8002,0.8047,0.8008,0.801,0.8012,0.8013,0.8126,0.8128,0,0,0,0,0,0,0.791,0.7915,0.7971,0.7972,0.793,0.7951,0.7955,0.7969,0.7984,0.7985,0.7967,0.7965,0.7995,0.7999,0.8003,0.8055,0.8011,0.8013,0.8014,0.8125,0.8127,0.8128,0,0,0,0,0,0,0.7908,0.7915,0.7969,0.7943,0.795,0.7954,0.797,0.797,0.798,0.7986,0.7987,0.7976,0.7995,0.7999,0.8033,0.8055,0.8014,0.8016,0.8123,0.8125,0.8128,0.8158,0,0,0,0,0,0,0.7906,0.7915,0.7932,0.7944,0.7951,0.8,0.7972,0.7972,0.7984,0.7981,0.7995,0.7996,0.7994,0.803,0.8036,0.8058,0.8018,0.8121,0.8124,0.8127,0.8155,0.8161,0.8167,0,0,0,0,0,0.7904,0.794,0.7933,0.794,0.7973,0.8001,0.8005,0.8002,0.7986,0.8003,0.8007,0.7996,0.8052,0.8034,0.804,0.8063,0.812,0.8123,0.8127,0.8153,0.816,0.8166,0,0,0,0,0,0,0.7931,0.7941,0.7934,0.7975,0.7987,0.7998,0.8019,0.801,0.8028,0.8024,0.802,0.8023,0.8058,0.8064,0.8044,0.8106,0.8083,0.8088,0.8101,0.8108,0.8113,0.8111,0.802,0,0,0,0,0,0.7941,0.7964,0.7971,0.8007,0.8013,0.8015,0.8027,0.8024,0.8036,0.8042,0.8048,0.8061,0.8081,0.8095,0.8114,0.8156,0.8158,0.8175,0.818,0.8185,0.8189,0.8211,0.8218,0.814,0.814,0.8139,0,0,0.7964,0.7972,0.7987,0.8012,0.8022,0.8044,0.802,0.8045,0.8062,0.8045,0.8078,0.8083,0.8096,0.8134,0.8151,0.814,0.8211,0.8189,0.8193,0.8195,0.8215,0.8223,0.8229,0.8142,0.8141,0.8141,0,0,0.8016,0.8025,0.8055,0.8064,0.8078,0.8079,0.8086,0.8097,0.81,0.8132,0.812,0.8139,0.8175,0.8185,0.8194,0.8248,0.8238,0.8254,0.8284,0.8305,0.8311,0.8316,0.8335,0.8342,0.8259,0.8259,0.8259,0,0.8042,0.8077,0.8072,0.8098,0.8109,0.8094,0.8124,0.8133,0.8153,0.8161,0.8148,0.8191,0.8199,0.8239,0.8252,0.826,0.8267,0.8253,0.831,0.8316,0.8321,0.8339,0.8346,0.8261,0.8261,0.826,0.826,0,0.8108,0.8131,0.8154,0.8172,0.8186,0.8214,0.8213,0.8227,0.8221,0.8223,0.8255,0.8264,0.8284,0.8293,0.8289,0.8332,0.8324,0.8311,0.8288,0.833,0.8347,0.8354,0.8263,0.8263,0.8262,0.8262,0,0,0.818,0.8194,0.8202,0.821,0.8223,0.8241,0.8268,0.8287,0.8299,0.8312,0.8334,0.8363,0.8351,0.8362,0.8358,0.8376,0.8417,0.836,0.836,0.837,0.8464,0.8475,0.8483,0.841,0.8411,0.8412,0.8463,0,0.8232,0.8279,0.8274,0.8318,0.8339,0.8325,0.8348,0.8358,0.836,0.8377,0.8379,0.84,0.8382,0.8388,0.8406,0.8409,0.8436,0.8405,0.843,0.8431,0.8427,0.8491,0.8503,0.855,0.847,0.8471,0.8472,0,0.8301,0.8316,0.8362,0.8371,0.8379,0.84,0.8417,0.8434,0.8445,0.8445,0.8456,0.8448,0.8474,0.845,0.8485,0.8464,0.8474,0.8476,0.8478,0.8481,0.8454,0.8496,0.8565,0.8572,0.8482,0.8481,0.848,0,0.8348,0.838,0.8411,0.8418,0.843,0.8444,0.8449,0.8459,0.847,0.8484,0.8492,0.8509,0.8518,0.8531,0.8528,0.8511,0.8564,0.854,0.8564,0.8564,0.8576,0.8576,0.8648,0.8582,0.8582,0.8582,0.8582,0,0.8408,0.8437,0.8433,0.8452,0.8483,0.8477,0.8508,0.8511,0.8519,0.8538,0.8526,0.8545,0.8539,0.8557,0.8554,0.8583,0.8587,0.8588,0.8587,0.8589,0.8589,0.8596,0.8592,0.8584,0.8584,0.8583,0.8583,0,0.8467,0.8465,0.8498,0.8505,0.8508,0.853,0.8536,0.8554,0.8554,0.8578,0.8584,0.8584,0.8604,0.8602,0.8624,0.8622,0.8658,0.8653,0.8655,0.8653,0.8678,0.8675,0.8758,0.8768,0.8695,0.8696,0.8696,0,0.8505,0.8527,0.8536,0.8548,0.8554,0.8573,0.8584,0.8578,0.8591,0.8603,0.862,0.8638,0.8653,0.8685,0.8687,0.8704,0.8699,0.8727,0.8702,0.8703,0.87,0.8698,0.87,0.8732,0.8733,0.8734,0.8734,0,0.8574,0.8571,0.8588,0.8604,0.8618,0.863,0.8641,0.8652,0.8647,0.8661,0.8681,0.8692,0.8714,0.8733,0.8748,0.8753,0.8743,0.8742,0.8748,0.8751,0.8751,0.8751,0.8668,0.874,0.874,0.8739,0.8739,0.8739,0.8623,0.8641,0.865,0.8668,0.8676,0.8686,0.8703,0.8705,0.8721,0.8739,0.8734,0.8757,0.8765,0.8785,0.8791,0.8808,0.8798,0.8808,0.881,0.8812,0.8815,0.8748,0.8811,0.8811,0.8811,0.881,0.881,0,0.869,0.8695,0.8712,0.8728,0.8742,0.873,0.8742,0.8754,0.8774,0.8783,0.8797,0.882,0.8837,0.884,0.8856,0.8869,0.8865,0.8874,0.8873,0.8874,0.8823,0.8816,0.8877,0.8877,0.8877,0.8877,0.8877,0.8877,0.8727,0.8757,0.8755,0.8788,0.8792,0.8813,0.8821,0.883,0.8837,0.8862,0.8877,0.8878,0.8884,0.8901,0.8916,0.8916,0.8923,0.8933,0.8932,0.8885,0.8878,0.8872,0.8865,0.8935,0.8935,0.8981,0.8981,0.8982]}]]